Regional Weather Roundup
Issued by NWS

Home | Current Version | Previous Version | Text Only | Print | Product List | Glossary Off
Versions: 1 2 3 4 5 6 7 8 9 10 11 12 13 14 15 16 17 18 19 20 21 22 23 24 25 26 27

000
ASUS45 KPSR 170710
RWRAZ

ARIZONA HOURLY REGIONAL WEATHER ROUNDUP
NATIONAL WEATHER SERVICE PHOENIX AZ
1200 AM MST THU AUG 17 2017

NOTE: FAIR INDICATES FEW OR NO CLOUDS BELOW 12,000 FEET WITH NO
SIGNIFICANT WEATHER AND/OR OBSTRUCTIONS TO VISIBILITY.

AZZ001>003-036-170800-
NORTHWEST ARIZONA

CITY           SKY/WX    TMP DP  RH WIND       PRES   REMARKS
BULLHEAD CITY  CLEAR     88  34  14 CALM      29.81S
KINGMAN        CLEAR     68  36  30 SE8       30.03R
$$

AZZ004>008-015-016-018-170800-
NORTH CENTRAL ARIZONA

CITY           SKY/WX    TMP DP  RH WIND       PRES   REMARKS
GRAND CANYON   CLEAR     48  36  63 CALM      30.27R
WILLIAMS       CLEAR     52  41  66 S8        30.28R
PRESCOTT       CLEAR     63  44  50 S7        30.16S
FLAGSTAFF      CLEAR     49  41  74 CALM      30.30S
PAYSON           N/A     64  39  39 CALM      30.19R
$$

AZZ009>014-017-170800-
NORTHEAST ARIZONA

CITY           SKY/WX    TMP DP  RH WIND       PRES   REMARKS
WINSLOW        CLEAR     64  39  39 SW7       30.15R
SAINT JOHNS    CLEAR     64  39  39 S8        30.21R
WINDOW ROCK    CLEAR     52  34  50 CALM      30.27R
SHOW LOW       CLEAR     59  37  44 S10       30.27S
$$

AZZ540-542>544-546-548-170800-
GREATER PHOENIX AREA

CITY           SKY/WX    TMP DP  RH WIND       PRES   REMARKS
PHOENIX        CLEAR     91  49  23 CALM      29.85R
BUCKEYE        CLEAR     82  41  23 SE7       29.86R
LUKE AFB       CLEAR     83  55  37 NW3       29.85R
DEER VALLEY    CLEAR     84  42  22 CALM      29.87R
SCOTTSDALE     CLEAR     84  46  26 E5        29.89R
MESA-GATEWAY   CLEAR     79  46  31 CALM      29.89R
$$

AZZ539-553-170800-
SOUTHWEST MARICOPA COUNTY AND PINAL COUNTY

CITY           SKY/WX    TMP DP  RH WIND       PRES   REMARKS
CASA GRANDE    CLEAR     81  45  28 S7        29.91R
GILA BEND      FAIR      84  44  23 S7        29.85R
$$

AZZ503-504-507>509-170800-
SOUTHEAST ARIZONA

CITY           SKY/WX    TMP DP  RH WIND       PRES   REMARKS
TUCSON         CLEAR     81  50  34 S8        30.00R
DAVIS-MONTHAN  CLEAR     76  52  42 SE7       30.00S
NOGALES        CLEAR     66  51  58 E8        30.11R
SIERRA VISTA   CLEAR     71  46  40 CALM      30.16S
DOUGLAS        CLEAR     67  54  63 E6        30.11S
SAFFORD        CLEAR     72  48  42 CALM      30.01R
$$

AZZ532-170800-
SOUTHWEST ARIZONA

CITY           SKY/WX    TMP DP  RH WIND       PRES   REMARKS
YUMA           CLEAR     87  49  26 CALM      29.83R
$$

CAZ041-043-047-048-061-525>527-560>570-170800-
SOUTHERN CALIFORNIA

CITY           SKY/WX    TMP DP  RH WIND       PRES   REMARKS
DOWNTOWN L.A.  CLEAR     67  60  78 CALM      29.96S
L.A. AIRPORT   CLEAR     66  61  84 SW8       29.96S
SAN DIEGO      PTCLDY    67  60  78 NW3       29.99S
BURBANK        CLEAR     67  58  72 SE5       29.96S
ONTARIO        CLEAR     67  59  75 SW6       29.98R
RIVERSIDE      CLEAR     67  60  78 CALM      29.98R
PALM SPRINGS   CLEAR     84  49  29 NW12      29.84S
EL CENTRO NAS  CLEAR     86  44  23 W17       29.82R
IMPERIAL       CLEAR     86  49  27 W12       29.79R
BLYTHE         CLEAR     87  35  15 SW6       29.81R
NEEDLES        CLEAR     90  32  12 W5        29.83R
$$

NVZ020-UTZ003-170800-
SOUTHERN NEVADA-UTAH

CITY           SKY/WX    TMP DP  RH WIND       PRES   REMARKS
LAS VEGAS      PTCLDY    85  39  19 SW3       29.91R
SALT LAKE CITY PTCLDY    72  40  31 SE6       30.05S
$$

NMZ009-TXZ055-170800-
NEW MEXICO-WEST TEXAS

CITY           SKY/WX    TMP DP  RH WIND       PRES   REMARKS
ALBUQUERQUE    CLOUDY    71  40  32 CALM      30.15S
EL PASO        CLEAR     76  59  55 E6        30.05F
$$


........................KEY........................
SKY/WX - SKY CONDITION/WEATHER
TMP    - TEMPERATURE IN FAHRENHEIT
DP     - DEW POINT IN FAHRENHEIT
RH     - RELATIVE HUMIDITY IN PERCENT
WIND   - DIRECTION AND SPEED IN MILES PER HOUR (MPH)
VRB    - VARIABLE WIND DIRECTION
PRES   - MEAN SEA LEVEL PRESSURE IN INCHES OF MERCURY
         F - FALLING PRESSURE   R - RISING PRESSURE
         S - STEADY PRESSURE
VSB    - VISIBILITY IN MILES
HX     - HEAT INDEX IN FAHRENHEIT
WCI    - WIND CHILL INDEX IN FAHRENHEIT
TC     - TEMPERATURE IN CELSIUS WHICH IS ALSO KNOWN AS
         TEMPERATURE IN CENTIGRADE
AFB    - AIR FORCE BASE
         LUKE AFB IS LUKE AIR FORCE BASE
         DAVIS-MONTHAN IS DAVIS-MONTHAN AIR FORCE BASE
NAS    - NAVAL AIR STATION
         EL CENTRO NAS IS EL CENTRO NAVAL AIR STATION
N/A    - NOT AVAILABLE





USA.gov is the U.S. government's official web portal to all federal, state and local government web resources and services.